Regional Weather Roundup
Issued by NWS Boston, MA

Current Version | Previous Version | Text Only | Print | Product List | Glossary Off
Versions: 1 2 3 4 5 6 7 8 9 10 11 12 13 14 15 16 17 18 19 20 21 22 23 24 25 26 27 28

000
ASUS41 KBOX 230910
RWRBOX

REGIONAL WEATHER ROUNDUP
NATIONAL WEATHER SERVICE TAUNTON MA
500 AM EDT THU MAR 23 2017

NOTE:  "FAIR" INDICATES FEW OR NO CLOUDS BELOW 12,000 FEET WITH NO
SIGNIFICANT WEATHER AND/OR OBSTRUCTIONS TO VISIBILITY.

MAZALL-231000-
EASTERN MASSACHUSETTS

CITY           SKY/WX    TMP DP  RH WIND       PRES   REMARKS
BOSTON         CLEAR     19  -4  36 NW13G25   30.39R WCI   6
BEVERLY        CLEAR     17  -3  41 NW14G22   30.37R WCI   3
LAWRENCE       CLEAR     16  -4  41 NW9       30.39R WCI   4
BEDFORD        CLEAR     16  -6  37 NW8G18    30.38R WCI   5
BLUE HILL        N/A     13  -4  46 NW12      30.33R WCI  -1
NORWOOD        CLEAR     18  -3  39 NW6       30.40R WCI  10
MARSHFIELD     CLEAR     19  -4  35 NW10G29   30.37R WCI   8
PLYMOUTH       CLEAR     18  -5  36 NW13      30.37R WCI   5
TAUNTON        CLEAR     17  -5  37 NW7       30.39R WCI   8
NEW BEDFORD    CLEAR     18  -4  37 NW9       30.39R WCI   7
$$

MAZALL-231000-
CAPE COD AND THE ISLANDS

CITY           SKY/WX    TMP DP  RH WIND       PRES   REMARKS
FALMOUTH         N/A    N/A N/A N/A MISG        N/A
HYANNIS        CLEAR     21   3  45 N14G29    30.33R WCI   8
CHATHAM        CLEAR     21   4  47 NW15G24   30.34R WCI   8
PROVINCETOWN   CLEAR     21   6  52 N22G30    30.36R WCI   5
NANTUCKET      CLEAR     20   2  45 NW22G32   30.35R WCI   3
MARTHAS VNYRD  CLEAR     20  -3  36 NW18G30   30.37R WCI   5
$$

MAZALL-231000-
CENTRAL AND WESTERN MASSACHUSETTS

CITY           SKY/WX    TMP DP  RH WIND       PRES   REMARKS
WORCESTER      CLEAR     13  -9  37 NW13      30.31R WCI  -2
FITCHBURG      CLEAR     15  -4  42 NW6       30.38R WCI   6
ORANGE         CLEAR     15  -5  40 NW12G20   30.38R WCI   2
SPRINGFIELD    CLEAR     16  -6  37 N6        30.40R WCI   8
WESTFIELD      CLEAR     14  -3  47 CALM      30.41R
NORTH ADAMS    CLEAR     14  -5  42 SW9       30.42R WCI   2
PITTSFIELD     CLEAR     12  -5  46 N5        30.36R WCI   4
$$

RIZALL-231000-
RHODE ISLAND

CITY           SKY/WX    TMP DP  RH WIND       PRES   REMARKS
PROVIDENCE     CLEAR     19  -6  33 NW12      30.42R WCI   7
NEWPORT        CLEAR     19  -3  38 N14G23    30.40R WCI   6
BLOCK ISLAND   CLEAR     20  -1  40 NW10G18   30.43R WCI   9
SMITHFIELD     CLEAR     15  -3  44 NW7       30.38R WCI   5
WESTERLY       CLEAR     19  -5  34 W3        30.44R
$$

CTZALL-231000-
CONNECTICUT

CITY           SKY/WX    TMP DP  RH WIND       PRES   REMARKS
BRADLEY INTL   CLEAR     16  -4  41 NW7       30.43R WCI   6
HARTFORD       CLEAR     19  -3  38 W3        30.46R
BRIDGEPORT     CLEAR     22   2  42 NW8       30.48R WCI  12
DANBURY        CLEAR     16   3  56 CALM      30.46R
GROTON         CLEAR     19  -3  38 W6        30.44R WCI  11
NEW HAVEN      CLEAR     21   0  39 NW8       30.47R WCI  11
CHESTER        FAIR      19  -6  32 NW9G18    30.42R WCI   9
MERIDEN        CLEAR     20  -4  34 NW3       30.46R
WILLIMANTIC    CLEAR     16   0  49 CALM      30.43R
OXFORD         CLEAR     18  -2  41 NW5       30.41S WCI  11
$$

MEZ002-015-021-024-NHZ003-005-008-011-012-014-VTZ005-008-231000-
NORTHERN NEW ENGLAND

CITY           SKY/WX    TMP DP  RH WIND       PRES   REMARKS
PORTLAND ME    CLEAR     15  -5  40 NW13G22   30.33R WCI   1
BANGOR ME      CLEAR     10  -6  48 NW16G25   30.24R WCI  -7
CONCORD NH     CLEAR     15  -4  42 NW15      30.36R WCI   0
MANCHESTER NH  CLEAR     17  -6  35 NW9G17    30.35R WCI   6
NASHUA NH      CLEAR     17  -3  41 NW12      30.38R WCI   4
PORTSMOUTH NH  CLEAR     16  -6  37 W7        30.34R WCI   6
JAFFREY NH     CLEAR     14  -8  37 VRB6      30.32R WCI   5
KEENE NH       CLEAR     13  -2  51 VRB3      30.39R
BURLINGTON VT  CLEAR      5  -2  72 SE3       30.46R
MT. WASHINGTON ICE FOG  -17 -17 100 NW71G78     N/A  VSB 1/8 WCI -59
$$

NYZ052-076-231000-
EASTERN NEW YORK

CITY           SKY/WX    TMP DP  RH WIND       PRES   REMARKS
ALBANY         CLEAR     13   0  56 W7        30.49R WCI   3
NEW YORK CITY  CLEAR     26   7  44 NW12      30.50R WCI  16
$$

ANZALL-231000-
MARINE OBSERVATIONS

STATION/POSITION TIME  TEMP    WIND        PRES    VSBY  WAVE
                       AIR SEA DIR/SP/G                  HT/PER
                 (UTC) (F)     (DEG/KT/KT) (MB)    (MI)  (FT/S)
BOSTON BUOY      0750   22 40  320/ 25/ 31 1027.1          5/ 5
BUZZARDS BAY     0800   20     340/ 26/ 30 1029.3R
NANTUCKET SOUND  0850      39              1027.3R         3/ 4
MASS BAY-STELLWA 0804   21 39  310/ 23/ 27 1026.2S         5/ 3
ISLE OF SHOALS   0800   18     310/ 18/ 22 1026.7R
S OF BLOCK IS    0855      40                N/A           6/ 6
$$

......................KEY.........................
  SKY/WX - SKY CONDITION/PRESENT WEATHER
  TMP    - TEMPERATURE IN FAHRENHEIT
  DWPT   - DEWPOINT IN FAHRENHEIT
  RH     - RELATIVE HUMIDITY IN PERCENT
  WIND   - DIRECTION AND SPEED IN MPH
  PRES   - MEAN SEA LEVEL PRESSURE IN INCHES OF HG
  WCI    - WIND CHILL INDEX
  VSB    - VISIBILITY IN MILES
  HX     - HEAT INDEX
  TC     - TEMPERATURE IN CELSIUS
  VRB    - VARIABLE WIND DIRECTION
  N/A    - NOT AVAILABLE




USA.gov is the U.S. government's official web portal to all federal, state and local government web resources and services.